Weather in Peresna

Russia / Smolensk Oblast     54°31′12″N   32°24′38″E
temp.,
°C
wind,
m/s
gust,
m/s
humid.,
%
clouds,
%
prec.,
mm/h
press.,
hPa
HPBL,
m
23 october, sat
sat2300:00+6sw71465100 0.0 1004885
03:00+6sw7147579 0.0 10041184
06:00+6sw91467100 0.0 10031020
09:00+5sw71284100 0.1 1005995
12:00+7wsw81169100 0.5 10071166
15:00+6w81263100 0.6 10081371
18:00+6w81361100 0.0 10101384
21:00+5wsw71370100 0.0 1011873
24 october, sun
sun2400:00+6w81278100 0.1 10121135
03:00+5wnw71179100 0.4 1013925
06:00+3wnw61187100 0.1 1016821
09:00+3nw6108978 0.4 1018874
12:00+3nw7107380 0.1 10211059
15:00+4nnw6961100 0.1 10231513
18:00+3nw5966100 0.1 10251039
21:00+1nw498154 0.1 1027417
25 october, mon
mon2500:00−1nw35925 0.0 1029104
03:00−2nw24925 0.0 103068
06:00−2wnw229049 0.0 103135
09:00−1sw247949 0.0 1032130
12:00+3sw465615 0.0 1031520
15:00+5sw58525 0.0 1030704
18:00+1ssw410745 0.0 1029211
21:00+1sw513825 0.0 1029282
26 october, tue
tue2600:000sw5138688 0.0 1028285
03:000sw5138594 0.0 1028283
06:000ssw51482100 0.0 1026310
09:00+1ssw61573100 0.0 1025385
12:00+5sw7155499 0.0 1024549
15:00+7sw71352100 0.0 1022697
18:00+4ssw513627 0.0 1022338
21:00+3ssw514675 0.0 1022318
27 october, wed
wed2700:00+2sw512720 0.0 1021262
03:00+1ssw511775 0.0 1020227
06:00+1ssw51279100 0.0 1018245
09:00+3sw61377100 0.1 1018341
12:00+3sw51195100 2.4 1017337
15:00+5wsw51095100 2.7 1018437
18:00+5wsw389616 0.1 1019198
21:00+4w389336 0.1 1020167